User: anonymous   Login
Location: Unspecified
(0.0000°N, 0.0000°E)
Time: 16:05:18
(UTC+00:00)
Language:

Skynet 4A - Orbit

View from above orbital plane
View from above orbital plane
View from above satellite
View from above satellite

Ground track
Ground track

The orbit data is extracted from the following two-line orbital elements,

1 20401U 90001A   17116.37601727 +.00000037 +00000-0 +00000-0 0  9996
2 20401 013.2967 013.1907 0015093 240.4145 330.3514 00.98995868095810
Epoch (UTC): 26 April 2017 09:01:27
Eccentricity: 0.0015093
inclination: 13.2967°
perigee height: 36083 km
apogee height: 36212 km
right ascension of ascending node: 13.1907°
argument of perigee: 240.4145°
revolutions per day: 0.98995868
mean anomaly at epoch: 330.3514°
orbit number at epoch: 9581

The dashed part of the orbit path shows where the satellite is in the earth's shadow,  

DLR